Flag for Norway Weather past 2 weeks in Ålgård, Norway

54 °F

Partly sunny.

Feels Like: 50 °F
Forecast: 51 / 54 °F
Wind: 10 mph from Southeast

Location: Stavanger / Sola

Current Time: Oct 8, 2015 at 6:29:59 PM

Latest Report: Oct 8, 2015 at 5:50 PM

Visibility: N/A

Pressure: 30.07 "Hg

Humidity: 63%

Dew point: 41 °F

Location of ÅlgårdLocation

Historic Weather in Ålgård — Graph


Ålgård temperature yesterday

Maximum temperature yesterday: 54 °F (at 12:20 AM)
Minimum temperature yesterday: 52 °F (at 10:20 AM)
Average temperature yesterday: 53 °F

Past Weeks' High & Low Weather Summary

High63 °F (Oct 5, 2:20 PM)100% (Sep 27, 2:50 AM)30.72 "Hg (Sep 27, 2:50 AM)
Low41 °F (Oct 5, 5:50 AM)47% (Oct 6, 10:20 PM)29.59 "Hg (Sep 24, 2:50 PM)
Average54 °F77%30.17 "Hg
* Reported Sep 23 5:20 PM — Oct 8 5:20 PM, Ålgård, Weather by CustomWeather, © 2015

Note: Actual official high and low records may vary slightly from our data, if they occured in-between our weather recording intervals... More about our weather records


Ålgård weather history for previous 24 hours

Time TempWeatherWind HumidityBarometerVisibility
5:20 PM
Thu, Oct 8
54 °FPartly sunny.8 mph63%30.07 "HgN/A
4:50 PM54 °FPartly sunny.8 mph63%30.07 "HgN/A
4:20 PM54 °FPartly sunny.10 mph63%30.04 "HgN/A
3:50 PM55 °FPartly sunny.12 mph59%30.04 "HgN/A
3:20 PM55 °FPartly sunny.13 mph59%30.04 "HgN/A
2:50 PM54 °FBroken clouds.16 mph63%30.01 "HgN/A
2:20 PM54 °FLight rain. Partly sunny.10 mph63%30.01 "HgN/A
1:50 PM54 °FLight rain. Broken clouds.10 mph63%30.01 "HgN/A
1:20 PM52 °FLight rain. Partly sunny.18 mph67%30.01 "HgN/A
12:50 PM54 °FLight rain. Broken clouds.17 mph58%30.01 "HgN/A
12:20 PM54 °FLight rain. Partly sunny.18 mph58%30.01 "HgN/A
11:50 AM54 °FPartly sunny.18 mph58%30.01 "HgN/A
11:20 AM54 °FBroken clouds.13 mph58%30.01 "HgN/A
10:50 AM54 °FLight rain. Broken clouds.14 mph58%30.01 "HgN/A
10:20 AM54 °FBroken clouds.14 mph58%30.01 "HgN/A
9:50 AM52 °FBroken clouds.15 mph62%30.01 "HgN/A
9:20 AM52 °FBroken clouds.14 mph62%29.98 "HgN/A
8:50 AM52 °FPartly cloudy.12 mph58%29.98 "HgN/A
8:20 AM52 °FPartly cloudy.12 mph62%29.95 "HgN/A
7:50 AM52 °FPartly cloudy.10 mph62%29.98 "HgN/A
7:20 AM52 °FPartly cloudy.12 mph62%29.98 "HgN/A
6:50 AM52 °FPartly cloudy.10 mph62%29.98 "HgN/A
6:20 AM52 °FPartly cloudy.14 mph62%29.98 "HgN/A
4:50 AM52 °FPartly cloudy.16 mph62%29.98 "HgN/A
3:50 AM54 °FPassing clouds.16 mph63%29.98 "HgN/A
2:50 AM52 °FLight rain. Passing clouds.15 mph67%29.98 "HgN/A
1:50 AM52 °FLight rain. Partly cloudy.18 mph67%29.98 "HgN/A
1:20 AM52 °FLight rain. Partly cloudy.17 mph67%29.98 "HgN/A
12:50 AM52 °FLight rain. Partly cloudy.16 mph67%29.98 "HgN/A
12:20 AM50 °FLight rain. Partly cloudy.15 mph76%29.98 "HgN/A
11:50 PM
Wed, Oct 7
52 °FLight rain. Partly cloudy.16 mph72%29.98 "HgN/A
10:50 PM52 °FLight rain. Passing clouds.15 mph72%29.98 "HgN/A
10:20 PM52 °FLight rain. Passing clouds.13 mph72%29.98 "HgN/A
9:50 PM52 °FPassing clouds.14 mph72%29.98 "HgN/A
9:20 PM52 °FPassing clouds.13 mph67%29.98 "HgN/A
8:50 PM52 °FPassing clouds.12 mph72%29.98 "HgN/A
8:20 PM54 °FPassing clouds.14 mph63%29.95 "HgN/A
7:50 PM54 °FPartly sunny.13 mph63%29.95 "HgN/A
7:20 PM52 °FPartly sunny.10 mph67%29.98 "HgN/A
6:50 PM52 °FPartly sunny.15 mph67%29.98 "HgN/A
6:20 PM52 °FPartly sunny.15 mph67%29.95 "HgN/A
Weather by CustomWeather, © 2015

See weather overviewHow to use our weather pages